Change the Weather History Date:

Wednesday, March 6, 2013

  Actual Average Record
Temperature  
Mean Temperature 40 °F 33 °F  
Max Temperature 45 °F 44 °F 59 °F (2004)
Min Temperature 35 °F 22 °F 2 °F (1978)
Degree Days  
Heating Degree Days 25 32  
Month to date heating degree days 170 195  
Since 1 July heating degree days 4291 4766  
Cooling Degree Days 0 0  
Month to date cooling degree days 0 0  
Year to date cooling degree days 0 0  
Moisture  
Dew Point 29 °F    
Average Humidity 66    
Maximum Humidity 79    
Minimum Humidity 53    
Precipitation  
Precipitation T in 0.11 in 2.11 in (2011)
Month to date precipitation T 0.65  
Year to date precipitation 3.66 6.39  
Sea Level Pressure  
Sea Level Pressure 29.97 in    
Wind  
Wind Speed 12 mph (NE)    
Max Wind Speed 26 mph    
Max Gust Speed 39 mph    
Visibility 10 miles    
Events Rain    
T = Trace of Precipitation, MM = Missing Value Source: NWS Daily Summary

Daily Weather History Graph

Daily Weather History Graph

Search for Another Location

Airport or City:

Trip Planner

Search our weather history database for the weather conditions in past years. The results will help you decide how hot, cold, wet, or windy it might be!

Date:

Astronomy

Mar. 06, 2013 Rise Set
Actual Time 6:21 AM EST 5:52 PM EST
Civil Twilight 5:54 AM EST 6:19 PM EST
Nautical Twilight 5:22 AM EST 6:52 PM EST
Astronomical Twilight 4:49 AM EST 7:24 PM EST
Moon 2:32 AM EST (3/6) 12:27 PM EST (3/6)
Length of Visible Light 12h 25m
Length of Day
11h 30m
Waning Crescent, 30% of the Moon is Illuminated
Mar 6
Waning Crescent
Mar 11
New
Mar 19
First Quarter
Mar 27
Full
Apr 3
Last Quarter

Hourly Weather History & Observations

Time (EST) Temp. Windchill Dew Point Humidity Pressure Visibility Wind Dir Wind Speed Gust Speed Precip Events Conditions
12:53 AM 36.0 °F 31.1 °F 26.1 °F 67% 30.00 in 10.0 mi North 5.8 mph - N/A   Overcast
1:53 AM 35.1 °F 31.0 °F 26.1 °F 70% 29.99 in 10.0 mi North 4.6 mph - N/A   Overcast
2:53 AM 35.1 °F 31.0 °F 26.1 °F 70% 29.97 in 10.0 mi North 4.6 mph - N/A   Overcast
3:53 AM 35.1 °F 32.2 °F 26.1 °F 70% 29.96 in 10.0 mi Variable 3.5 mph - N/A   Overcast
4:53 AM 35.1 °F 30.1 °F 27.0 °F 72% 29.95 in 10.0 mi North 5.8 mph - N/A   Overcast
5:53 AM 36.0 °F 32.1 °F 28.0 °F 73% 29.96 in 10.0 mi North 4.6 mph - N/A   Overcast
6:09 AM 39.2 °F 33.6 °F 28.4 °F 65% 29.96 in 10.0 mi NE 8.1 mph - N/A   Overcast
6:53 AM 39.0 °F 33.4 °F 30.9 °F 73% 29.96 in 10.0 mi NE 8.1 mph 19.6 mph N/A   Overcast
7:53 AM 39.9 °F 35.1 °F 30.0 °F 68% 29.96 in 10.0 mi NE 6.9 mph - N/A   Overcast
8:53 AM 39.0 °F 32.3 °F 33.1 °F 79% 29.96 in 9.0 mi NE 10.4 mph - N/A   Overcast
9:53 AM 41.0 °F 34.7 °F 32.0 °F 70% 29.96 in 10.0 mi NE 10.4 mph - N/A   Overcast
10:53 AM 42.1 °F 37.1 °F 34.0 °F 73% 29.95 in 9.0 mi ENE 8.1 mph 17.3 mph 0.00 in Rain Light Rain
11:32 AM 44.6 °F 37.8 °F 33.8 °F 66% 29.96 in 10.0 mi ENE 15.0 mph 24.2 mph 0.00 in   Overcast
11:44 AM 41.0 °F 35.2 °F 35.6 °F 81% 29.95 in 2.5 mi ENE 9.2 mph 19.6 mph 0.00 in Rain Light Rain
11:51 AM 42.8 °F 37.0 °F 35.6 °F 76% 29.95 in 10.0 mi NE 10.4 mph - 0.00 in   Overcast
11:53 AM 42.1 °F 34.9 °F 35.1 °F 76% 29.95 in 10.0 mi NE 13.8 mph 18.4 mph 0.00 in   Overcast
12:24 PM 42.8 °F 35.4 °F 32.0 °F 66% 29.94 in 10.0 mi ENE 15.0 mph 27.6 mph N/A   Overcast
12:53 PM 44.1 °F 36.8 °F 32.0 °F 63% 29.93 in 10.0 mi ENE 16.1 mph 27.6 mph N/A   Overcast
1:53 PM 43.0 °F 36.0 °F 28.0 °F 56% 29.94 in 10.0 mi ENE 13.8 mph 32.2 mph N/A   Mostly Cloudy
2:53 PM 42.1 °F 34.2 °F 27.0 °F 55% 29.95 in 10.0 mi NE 16.1 mph 36.8 mph N/A   Overcast
3:53 PM 42.1 °F 33.3 °F 27.0 °F 55% 29.94 in 10.0 mi NNE 19.6 mph 25.3 mph N/A   Overcast
4:53 PM 39.9 °F 30.8 °F 28.9 °F 65% 29.97 in 10.0 mi NNE 18.4 mph 26.5 mph N/A   Overcast
5:53 PM 39.9 °F 32.1 °F 28.0 °F 63% 29.99 in 10.0 mi NNE 13.8 mph 27.6 mph N/A   Overcast
6:53 PM 39.0 °F 28.3 °F 27.0 °F 62% 30.02 in 10.0 mi NNE 24.2 mph 34.5 mph N/A   Overcast
7:53 PM 39.0 °F 30.3 °F 26.1 °F 60% 30.01 in 10.0 mi NNE 16.1 mph 27.6 mph N/A   Overcast
8:53 PM 37.9 °F 28.9 °F 25.0 °F 60% 30.01 in 10.0 mi NNE 16.1 mph 23.0 mph N/A   Overcast
9:53 PM 37.9 °F 29.6 °F 25.0 °F 60% 30.01 in 10.0 mi NNE 13.8 mph - N/A   Overcast
10:53 PM 37.9 °F 28.5 °F 25.0 °F 60% 30.01 in 10.0 mi NNE 17.3 mph 24.2 mph N/A   Overcast
11:53 PM 37.9 °F 30.0 °F 25.0 °F 60% 30.01 in 10.0 mi North 12.7 mph 21.9 mph N/A   Overcast